User: anonymous   Login
Location: Unspecified
(0.0000°N, 0.0000°E)
Time: 02:27:57
(UTC+00:00)
Language:

CAS-4A - Orbit

View from above orbital plane
View from above orbital plane
View from above satellite
View from above satellite

Ground track
Ground track

The orbit data is extracted from the following two-line orbital elements,

1 42761U 17034D   19016.78542983  .00000135  00000-0  21818-4 0  9991
2 42761  43.0197 350.1355 0011492   2.9974  66.0754 15.09541926 87720
Epoch (UTC): 16 January 2019 18:51:01
Eccentricity: 0.0011492
inclination: 43.0197°
perigee height: 529 km
apogee height: 545 km
right ascension of ascending node: 350.1355°
argument of perigee: 2.9974°
revolutions per day: 15.09541926
mean anomaly at epoch: 66.0754°
orbit number at epoch: 8772

The dashed part of the orbit path shows where the satellite is in the earth's shadow,  

DLR